DW4360 Weather Reports


time (UTC)temp
F
wind
direction
speed
knots
gust
knots
rain 1hr
in
rain 24hr
in
rain mn
in
humidity
%
barometer
mb
20260906180934 58 322 0.0 0.0 0.00 0.00 0.03 93 1015.6
20260906175933 58 322 0.0 0.0 0.00 0.00 0.02 93 1015.6
20260906174932 58 322 0.0 0.0 0.00 0.00 0.02 93 1015.6
20260906173931 58 322 0.0 0.0 0.00 0.00 0.02 93 1015.7
20260906171929 58 322 0.0 0.0 0.00 0.00 0.02 93 1015.6
20260906170928 58 322 0.0 0.0 0.00 0.00 0.02 93 1015.6
20260906165927 58 322 0.0 0.0 0.00 0.00 0.02 93 1015.6
20260906163925 57 322 0.0 0.0 0.00 0.00 0.01 93 1015.5
20260906162924 57 322 0.0 0.0 0.00 0.00 0.01 93 1015.3
20260906161923 57 322 0.0 0.0 0.00 0.00 0.01 93 1015.3
20260906160922 57 322 0.0 0.0 0.00 0.00 0.01 92 1015.2
20260906154920 57 322 0.0 0.0 0.00 0.00 0.01 92 1015.1
20260906153919 57 322 0.0 0.0 0.00 0.00 0.00 92 1015.1
20260906152918 57 322 0.0 0.0 0.00 0.00 0.07 92 1015.1
20260906151917 58 322 0.0 0.0 0.00 0.00 0.07 92 1015.1
20260906150916 58 322 0.0 0.0 0.00 0.00 0.07 92 1015.0
20260906144914 58 322 0.0 0.0 0.00 0.00 0.06 92 1014.9
20260906143912 58 322 0.0 0.0 0.00 0.00 0.06 92 1014.7
20260906142911 58 322 0.0 0.0 0.00 0.00 0.06 92 1014.5
20260906141910 58 322 0.0 0.0 0.00 0.00 0.05 91 1014.5
20260906140910 58 322 0.0 0.0 0.00 0.00 0.05 91 1014.5
20260906135909 58 322 0.0 0.0 0.00 0.00 0.04 91 1014.4
20260906133907 58 322 0.0 0.0 0.00 0.00 0.03 90 1014.1
20260906132906 58 322 0.0 0.0 0.00 0.00 0.02 90 1014.0
20260906131905 58 322 0.0 0.0 0.00 0.00 0.02 89 1014.0
20260906124902 59 322 0.0 0.0 0.00 0.00 0.01 88 1014.0
20260906123901 59 322 0.0 0.0 0.00 0.00 0.01 87 1013.9
20260906121859 59 322 0.0 0.0 0.00 0.00 0.01 86 1014.0
20260906120858 60 322 0.0 0.0 0.00 0.00 0.01 86 1014.3
20260906114856 60 322 0.0 0.0 0.00 0.00 0.01 85 1014.3
20260906113854 60 322 0.0 0.0 0.00 0.00 0.01 85 1014.1
20260906112853 60 322 0.0 0.0 0.00 0.00 0.01 85 1014.1
20260906111853 60 322 0.0 0.0 0.00 0.00 0.01 84 1014.2
20260906110851 60 322 0.0 0.0 0.00 0.00 0.01 84 1014.1
20260906105850 60 322 0.0 0.0 0.00 0.00 0.01 84 1014.1
20260906104849 60 322 0.0 0.0 0.00 0.00 0.01 84 1014.0
20260906103848 60 322 0.0 0.0 0.00 0.00 0.01 84 1014.1
20260906102847 60 322 0.0 0.0 0.00 0.00 0.01 84 1014.0
20260906100845 60 322 0.0 0.0 0.00 0.00 0.01 84 1014.0
20260906095844 60 322 0.0 0.0 0.00 0.00 0.01 84 1013.9
20260906094843 60 322 0.0 0.0 0.00 0.00 0.01 84 1014.0
20260906093842 60 322 0.0 0.0 0.00 0.00 0.01 84 1014.0
20260906092841 60 322 0.0 0.0 0.00 0.00 0.01 84 1013.9
20260906091840 60 322 0.0 0.0 0.00 0.00 0.01 84 1013.9
20260906090839 61 322 0.0 0.0 0.00 0.00 0.01 84 1013.9
20260906085838 61 322 0.0 0.0 0.00 0.00 0.01 83 1014.0
20260906084837 61 322 0.0 0.0 0.00 0.00 0.01 83 1014.1
20260906083836 61 322 0.0 0.0 0.00 0.00 0.01 83 1013.9
20260906082835 61 322 0.0 0.0 0.00 0.00 0.01 83 1013.9
20260906081834 61 322 0.0 0.0 0.00 0.00 0.01 83 1013.9
20260906075832 61 323 0.0 0.0 0.00 0.00 0.01 82 1013.9
20260906074831 61 323 0.0 0.0 0.00 0.00 0.01 82 1013.9
20260906073830 61 323 0.0 0.0 0.00 0.00 0.01 81 1014.0
20260906072829 62 323 0.0 0.0 0.00 0.00 0.01 81 1014.0
20260906071828 62 323 0.0 0.0 0.00 0.00 0.01 81 1013.9
20260906070827 62 328 3.5 0.0 0.00 0.00 0.01 81 1014.0
20260906065826 62 331 0.9 0.0 0.00 0.00 0.01 80 1014.0
20260906064825 62 320 0.9 0.0 0.00 0.00 0.01 80 1014.0
20260906063824 62 321 0.0 0.0 0.00 0.00 0.01 79 1014.1
20260906061822 62 321 0.0 0.0 0.00 0.00 0.01 79 1014.1
20260906060821 62 321 0.0 0.0 0.00 0.00 0.01 78 1014.1
20260906055820 62 321 0.0 0.0 0.00 0.00 0.01 78 1014.1
20260906054819 62 321 0.0 0.0 0.00 0.00 0.01 78 1014.2
20260906053818 62 321 0.0 0.0 0.00 0.00 0.01 77 1014.3
20260906051816 62 323 0.0 0.0 0.00 0.00 0.01 76 1014.1
20260906050815 62 325 0.0 0.0 0.00 0.00 0.01 75 1014.3
20260906045814 63 325 0.0 0.0 0.00 0.00 0.01 75 1014.2
20260906044812 63 325 0.0 0.0 0.00 0.00 0.01 74 1014.3
20260906043812 63 328 0.0 0.0 0.00 0.00 0.01 74 1014.3
20260906040808 64 328 0.0 0.0 0.00 0.00 0.01 74 1014.5
20260906035808 64 328 0.0 0.0 0.00 0.00 0.01 72 1014.4
20260906034807 65 328 0.0 0.0 0.00 0.00 0.01 71 1014.3
20260906033806 66 328 0.0 0.0 0.00 0.00 0.01 70 1014.1
20260906032804 66 328 0.0 0.0 0.00 0.00 0.01 68 1014.0
20260906031803 67 328 0.0 0.0 0.00 0.00 0.01 66 1013.9
20260906030802 67 328 0.0 0.0 0.00 0.00 0.01 65 1013.9
20260906025802 68 328 0.0 0.0 0.00 0.00 0.01 62 1013.9
20260906024801 68 331 0.0 0.0 0.00 0.00 0.01 60 1013.8
20260906023759 68 332 0.0 0.0 0.00 0.00 0.01 58 1013.9
20260906022759 69 332 2.6 0.0 0.00 0.00 0.01 57 1013.9
20260906021758 69 332 0.0 0.0 0.00 0.00 0.01 57 1013.8
20260906020757 70 332 0.0 0.0 0.00 0.00 0.01 56 1013.9
20260906015755 71 333 0.0 0.0 0.00 0.00 0.01 55 1014.0
20260906014755 72 65 0.0 0.0 0.00 0.00 0.01 52 1014.0
20260906013753 72 66 0.0 0.0 0.00 0.00 0.01 50 1014.1
20260906012753 73 66 0.0 0.0 0.00 0.00 0.01 49 1014.0
20260906011752 74 309 0.0 0.0 0.00 0.00 0.01 50 1013.9
20260906004748 77 91 0.0 0.0 0.00 0.00 0.01 46 1014.0
20260906003747 78 95 0.0 0.0 0.00 0.00 0.01 45 1014.0
20260906001745 76 331 0.0 0.0 0.00 0.00 0.01 47 1013.9
20260906000745 76 331 0.0 0.0 0.00 0.00 0.01 48 1014.1
20260905235743 77 331 0.0 0.0 0.00 0.00 0.01 48 1014.0
20260905233741 74 331 0.0 0.0 0.00 0.00 0.01 52 1014.0
20260905232740 73 334 0.0 0.0 0.00 0.00 0.01 52 1014.2
20260905231739 73 334 0.0 0.0 0.00 0.00 0.01 53 1014.3
20260905230738 73 338 0.0 0.0 0.00 0.00 0.01 52 1014.4
20260905225737 73 338 0.0 0.0 0.00 0.00 0.01 54 1014.4
20260905224736 73 341 0.0 0.0 0.00 0.00 0.01 53 1014.4
20260905223735 72 244 0.0 0.0 0.00 0.00 0.01 52 1014.5
20260905221733 73 327 0.0 0.0 0.00 0.00 0.01 56 1014.7
20260905220732 73 328 0.0 0.0 0.00 0.00 0.01 51 1014.9
20260905215731 74 331 0.0 0.0 0.00 0.00 0.01 51 1014.8
20260905214730 75 306 0.0 0.0 0.00 0.00 0.01 49 1014.9
20260905213729 75 293 0.0 0.0 0.00 0.00 0.01 50 1015.0
20260905212728 74 338 0.0 0.0 0.00 0.00 0.01 52 1014.9
20260905205725 73 340 3.5 0.0 0.00 0.00 0.01 53 1015.2
20260905204724 72 344 0.0 0.0 0.00 0.00 0.01 54 1015.2
20260905203723 73 76 0.0 0.0 0.00 0.00 0.01 54 1015.2
20260905202722 72 335 0.0 0.0 0.00 0.00 0.01 58 1015.2
20260905201721 71 328 0.0 0.0 0.00 0.00 0.01 59 1015.2
20260905200720 71 80 0.0 0.0 0.00 0.00 0.01 61 1015.4
20260905195719 71 331 0.0 0.0 0.00 0.00 0.01 61 1015.4
20260905194718 71 331 0.0 0.0 0.00 0.00 0.01 60 1015.4
20260905193717 70 54 0.0 0.0 0.00 0.00 0.01 64 1015.6
20260905192716 70 343 0.0 0.0 0.00 0.00 0.01 63 1015.6
20260905191715 69 121 0.0 0.0 0.00 0.00 0.00 64 1015.8
20260905190714 69 120 0.0 0.0 0.00 0.00 0.00 66 1015.8
20260905185713 68 121 0.0 0.0 0.00 0.00 0.00 69 1015.9
20260905184712 68 317 0.0 0.0 0.00 0.00 0.00 67 1016.0
20260905183711 68 322 0.0 0.0 0.00 0.00 0.00 68 1016.1
20260905182710 68 328 0.0 0.0 0.00 0.00 0.00 70 1016.2
20260905181709 68 336 0.0 0.0 0.00 0.00 0.00 72 1016.2